Showing default

NANOSAT C BR1, 40024

Orbit data source: Space-Track

NANOSAT C BR1, 40024 is a Brazilian payload satellite in SSO that was launched on Thu, 19 Jun 2014 UTC via a DNEPR launch vehicle from the Orenburg, Russia (OREN). Payload-class satellites include a variety of spacecraft equipped with specific instruments for various scientific and technological missions. These include communications satellites like Starlink; space stations such as the ISS; scientific satellites like the Hubble; Earth observation satellites from companies like Planet Labs, Umbra, and HawkEye 360; GPS; miniature CubeSats for education and research; and military/defense satellites.

Loading next visibility...
Identifier
40024, 2014-033Q
Orbit
SSO
Country
Flag of UnknownUnknown / BRAZ
Related business
Manufacturer
INPES/UFSM
Mission
Operational Commercial Science
Bus & Motor
CUBESAT 1U, Unknown motor
Mass
1 kg wet, 1 kg dry
Launch date (UTC)
2014-06-19 (11 years ago)
Launch vehicle
DNEPR
Launch site
Orenburg, Russia (OREN)
Object type
Payload
Rocket body
Debris
Shape & HBR
Box, 0.1 m
Radar Cross Section
0.015 m², Small (<0.1 m²)

Expand to show TLE details & history
Last TLE update: 9 hours ago

TLE from 9 hours ago
0 NANOSAT C BR1
1 40024U 14033Q   25287.86872185  .00016641  00000-0  73075-3 0  9993
2 40024  98.0948 294.9690 0003145 350.3230   9.7943 15.22017168616545
Epoch: 2025-10-14T20:50Z
TLE epoch observation values (Epoch: 2025-10-14T20:50:57.567Z)
Latitude
-0.00005°
Longitude
-41.42182°
Altitude
500.697 km
Speed
7.615 km/s
True Right ascension
19h 39m 52s
True Declination
0° 00' 00"
Sunlit
Object was in daylight at epoch
Visualization orbit readout
Latitude
Unknown
Longitude
Unknown
Altitude
Unknown
Speed
Unknown
Apparent Right ascension
Unknown
Apparent Declination
Unknown
Sunlit
N/A
Visualization observer readout
Local Sidereal Time
00:09:31
Azimuth
Unknown
Elevation
Unknown
Doppler factor
Unknown
Orbital elements
Apogee altitude
498.913 km
Perigee altitude
494.589 km
Semi-major axis
6,874.888 km
Eccentricity
0.00031
Inclination
98.0948°
RAAN
294.969°
Arg. of periapsis
350.323°
True anomaly
9.80043°
Mean anomaly
9.7943°
Eccentric anomaly
9.79737°
Mean motion
3.80754 °/min
Orbital period
94.55 mins
BSTAR
0.00073075
Loading maneuver chart data...
Computing Atmospheric mass density...
Loading historical data...
Loading historical data...
Loading historical data...
Loading historical data...
Loading historical data...
Loading historical data...
Loading historical data...

Documentation

Showing up to 5 results
|